[[{"header":{"parameterUnit":"m.s-1","parameterCategory":1,"la1":30.2992,"la2":30.254,"lo1":-89.0895,"lo2":-89.0443,"dy":0.0025,"dx":0.0025,"nx":19,"ny":19,"refTime":"2026-04-02T03:00:00:Z","depth":0,"parameterNumber":2,"parameterNumberName":"U-component_of_WINDS"},"data":[0,0,0,-4.5225,-4.5227,-4.5347,-4.5348,-4.5515,-4.5516,0,0,0,0,0,0,0,0,0,0,0,-4.5196,-4.5197,-4.5224,-4.5228,-4.5347,-4.5348,-4.5514,-4.5516,0,0,0,0,0,0,0,0,0,0,0,-4.5195,-4.5197,-4.5199,-4.5228,-4.5347,-4.5348,-4.5514,-4.5419,0,0,0,0,0,0,0,0,0,0,-4.5301,-4.528,-4.5197,-4.5199,-4.5229,-4.5347,-4.5348,-4.5414,-4.5425,-4.5466,0,-4.5503,0,-4.5512,-4.5528,-4.5529,0,0,0,-4.5223,-4.5271,-4.5298,-4.5199,-4.523,-4.5347,-4.5292,-4.542,-4.5432,-4.548,-4.5505,-4.5511,-4.5515,-4.5529,-4.553,-4.5779,-4.5781,0,0,-4.5216,-4.5221,-4.5289,-4.5306,-4.5287,-4.5288,-4.5296,-4.5427,-4.5455,-4.5506,-4.5515,-4.5518,-4.5531,-4.5532,-4.5778,-4.578,0,0,0,-4.52,-4.5217,-4.524,-4.5299,-4.532,-4.5292,-4.53,-4.5449,-4.5456,-4.5516,-4.552,-4.5532,-4.5534,-4.5776,-4.5779,-4.585,0,0,0,-4.5196,-4.5208,-4.5237,-4.5241,-4.5317,-4.5386,-4.532,-4.5447,-4.5462,-4.5519,-4.5532,-4.5535,-4.5775,-4.5778,-4.5845,-4.5883,0,0,0,-4.5186,-4.5206,-4.5226,-4.5241,-4.5293,-4.5383,-4.5398,-4.545,-4.5464,-4.5529,-4.5536,-4.5774,-4.5777,-4.584,-4.5875,-4.5949,0,0,0,-4.5177,-4.5289,-4.5227,-4.5355,-4.5292,-4.5427,-4.5397,-4.5498,-4.5562,-4.5533,-4.5775,-4.5778,-4.5839,-4.5871,-4.5944,-4.601,-4.6039,0,0,-4.5321,-4.5307,-4.5382,-4.533,-4.5477,-4.5409,-4.5567,-4.5622,-4.5624,-4.5728,-4.5734,-4.5847,-4.5875,-4.5948,-4.6201,-4.6224,0,0,0,-4.5429,-4.5483,-4.5521,-4.5582,-4.5626,-4.5667,-4.5697,-4.5718,-4.5805,-4.5678,-4.5895,-4.5911,-4.5954,-4.5985,-4.6004,-4.604,-4.5794,-4.5793,-4.5793,-4.564,-4.5637,-4.576,-4.5771,-4.5832,-4.5862,-4.591,-4.5944,-4.5923,-4.5975,-4.6004,-4.6158,-4.6195,-4.621,-4.6247,-4.6041,-4.6041,-4.6042,-4.6042,-4.585,-4.5925,-4.5896,-4.6005,-4.6001,-4.6094,-4.6129,-4.6111,-4.6197,-4.6135,-4.6173,-4.6103,-4.6235,-4.6267,-4.6047,-4.6046,-4.6046,-4.6045,-4.6045,-4.5986,-4.6021,-4.6044,-4.6133,-4.6202,-4.6211,-4.6295,-4.629,-4.6286,-4.6323,-4.6353,-4.6352,-4.6349,-4.6338,-4.6339,-4.634,-4.634,-4.634,-4.6341,-4.6116,-4.614,-4.621,-4.6268,-4.6307,-4.6358,-4.6392,-4.6431,-4.6472,-4.6462,-4.6462,-4.6436,-4.6249,-4.62,-4.6349,-4.6347,-4.6346,-4.6346,-4.6345,-4.6326,-4.6278,-4.6386,-4.6425,-4.6493,-4.6563,-4.6556,-4.6636,-4.6668,-4.671,-4.6678,-4.654,-4.6525,-4.6509,-4.6469,-4.6678,-4.6678,-4.6678,-4.6678,-4.6438,-4.6431,-4.654,-4.6603,-4.6665,-4.6671,-4.6795,-4.6824,-4.6846,-4.6866,-4.6835,-4.6783,-4.6767,-4.6761,-4.674,-4.6702,-4.6966,-4.6967,-4.6967,-4.6566,-4.6565,-4.667,-4.669,-4.6744,-4.679,-4.6907,-4.6982,-4.6998,-4.6978,-4.6881,-4.6869,-4.6783,-4.6756,-4.6731,-4.6699,-4.6629,0,0]},{"header":{"parameterUnit":"m.s-1","parameterCategory":1,"la1":30.2992,"la2":30.254,"lo1":-89.0895,"lo2":-89.0443,"dy":0.0025,"dx":0.0025,"nx":19,"ny":19,"refTime":"2026-04-02T03:00:00:Z","depth":0,"parameterNumber":3,"parameterNumberName":"V-component_of_WINDS"},"data":[0,0,0,2.1766,2.1766,2.1802,2.1802,2.1818,2.1818,0,0,0,0,0,0,0,0,0,0,0,2.1739,2.1739,2.1766,2.1766,2.1802,2.1802,2.1818,2.1818,0,0,0,0,0,0,0,0,0,0,0,2.1739,2.1739,2.1738,2.1766,2.1802,2.1802,2.1818,2.1801,0,0,0,0,0,0,0,0,0,0,2.1771,2.1732,2.1739,2.1738,2.1766,2.1802,2.1802,2.1801,2.1802,2.1789,0,2.1776,0,2.1797,2.1817,2.1817,0,0,0,2.1777,2.173,2.1755,2.1738,2.1766,2.1802,2.1789,2.1802,2.1803,2.1791,2.1777,2.1778,2.1798,2.1817,2.1817,2.1715,2.1714,0,0,2.1775,2.1736,2.1754,2.1755,2.1751,2.1788,2.179,2.1803,2.1784,2.1777,2.1779,2.1798,2.1817,2.1817,2.1716,2.1715,0,0,0,2.1762,2.1734,2.1759,2.1754,2.1763,2.1788,2.1791,2.1783,2.1795,2.1779,2.1798,2.1817,2.1817,2.1717,2.1716,2.163,0,0,0,2.1761,2.1727,2.1758,2.1734,2.1762,2.1774,2.177,2.1794,2.1797,2.1798,2.1817,2.1817,2.1718,2.1716,2.1635,2.1595,0,0,0,2.1742,2.1725,2.1725,2.1732,2.1746,2.1775,2.1787,2.1795,2.1807,2.1817,2.1817,2.1719,2.1717,2.1639,2.1602,2.1557,0,0,0,2.1709,2.1646,2.1723,2.1659,2.1746,2.1722,2.1788,2.1771,2.1769,2.1817,2.1718,2.1716,2.164,2.1607,2.1562,2.1512,2.1488,0,0,2.1608,2.1632,2.1598,2.1668,2.1621,2.172,2.166,2.1693,2.1728,2.1717,2.1715,2.1633,2.1603,2.1558,2.1369,2.1349,0,0,0,2.1553,2.1528,2.1524,2.1522,2.1548,2.1567,2.1615,2.1627,2.162,2.1715,2.1606,2.1589,2.1565,2.1543,2.1526,2.1508,2.1704,2.1705,2.1705,2.1351,2.1403,2.1349,2.1405,2.1402,2.1453,2.1455,2.148,2.153,2.1503,2.15,2.1379,2.1352,2.134,2.132,2.1479,2.1478,2.1478,2.1478,2.1206,2.1179,2.125,2.1224,2.1278,2.1256,2.1302,2.1339,2.1324,2.1386,2.1366,2.1428,2.1318,2.1302,2.1472,2.1473,2.1474,2.1474,2.1475,2.1079,2.1075,2.1094,2.1098,2.1095,2.1153,2.1137,2.1186,2.1231,2.1212,2.1214,2.1216,2.1223,2.121,2.121,2.1209,2.1209,2.1209,2.1208,2.094,2.0965,2.0947,2.0971,2.0977,2.0991,2.1043,2.1049,2.1068,2.1105,2.1105,2.1157,2.1298,2.1332,2.1202,2.1203,2.1204,2.1205,2.1205,2.0773,2.0819,2.0792,2.0798,2.0831,2.0824,2.0888,2.0897,2.091,2.09,2.0957,2.1054,2.1081,2.1095,2.1123,2.0947,2.0947,2.0947,2.0947,2.0665,2.0686,2.0669,2.0676,2.0689,2.0744,2.0709,2.0749,2.0796,2.0806,2.0839,2.0881,2.0893,2.0914,2.0931,2.0958,2.0744,2.0744,2.0744,2.0565,2.059,2.0551,2.0602,2.0632,2.0656,2.0625,2.0627,2.069,2.0737,2.0815,2.0824,2.0893,2.0913,2.0958,2.0984,2.1035,0,0]}]]